Home   Weather   Township of Washington   Past weeks
Flag for USA

Past Weather in Township of Washington, Arkansas, USA — Yesterday and Last 2 Weeks

Now
47 °F

Drizzle. Fog.


Feels Like: 43 °F
Forecast: 58 / 47 °F
Wind: 8 mph from Northeast

Location: Adams Field
Current Time: Oct 25, 2020 at 3:14:09 am
Latest Report: Oct 25, 2020 at 1:53 am
Visibility: 2 mi
Pressure30.04 "Hg
Humidity: 93%
Dew Point: 45 °F
Location of Township of WashingtonLocation

Past Weather in Township of Washington — Graph

°F

Township of Washington Temperature Yesterday

Maximum temperature yesterday: 51 °F (at 1:53 pm)
Minimum temperature yesterday: 46 °F (at 7:53 am)
Average temperature yesterday: 49 °F

High & Low Weather Summary for the Past Weeks

 TemperatureHumidityPressure
High84 °F (Oct 21, 3:53 pm)100% (Oct 12, 6:53 am)30.41 "Hg (Oct 12, 6:53 am)
Low41 °F (Oct 17, 6:53 am)25% (Oct 12, 4:53 pm)29.72 "Hg (Oct 10, 2:53 pm)
Average65 °F78%30.03 "Hg
* Reported Oct 10 12:53 am — Oct 25 12:53 am, Township of Washington. Weather by CustomWeather, © 2020

Note: Actual official high and low records may vary slightly from our data, if they occured in-between our weather recording intervals... More about our weather records

Township of Washington Weather History for the Previous 24 Hours

Scroll right to see more
 ConditionsComfort  
Time TempWeatherWind HumidityBarometerVisibility
12:53 am
Sun, Oct 25
48 °FMostly cloudy.7 mph89%30.04 "Hg10 mi
12:25 am47 °FMostly cloudy.6 mph90%30.04 "Hg10 mi
11:53 pm
Sat, Oct 24
48 °FMostly cloudy.7 mph86%30.06 "Hg10 mi
10:53 pm48 °FOvercast.5 mph86%30.08 "Hg10 mi
9:53 pm48 °FOvercast.8 mph83%30.07 "Hg10 mi
9:16 pm48 °FOvercast.10 mph83%30.07 "Hg10 mi
8:53 pm49 °FOvercast.10 mph84%30.07 "Hg10 mi
7:53 pm49 °FOvercast.8 mph84%30.06 "Hg7 mi
6:53 pm50 °FOvercast.8 mph77%30.05 "Hg10 mi
5:53 pm50 °FOvercast.5 mph77%30.05 "Hg10 mi
4:53 pm51 °FOvercast.6 mph74%30.05 "Hg10 mi
3:53 pm50 °FOvercast.7 mph77%30.07 "Hg10 mi
2:53 pm50 °FOvercast.7 mph74%30.09 "Hg10 mi
1:53 pm51 °FOvercast.8 mph74%30.11 "Hg10 mi
12:53 pm49 °FOvercast.7 mph77%30.14 "Hg10 mi
11:53 am49 °FOvercast.8 mph77%30.16 "Hg10 mi
10:53 am48 °FOvercast.10 mph77%30.18 "Hg10 mi
9:53 am47 °FOvercast.9 mph80%30.19 "Hg10 mi
8:53 am47 °FOvercast.13 mph80%30.19 "Hg10 mi
7:53 am46 °FDrizzle. Fog.10 mph83%30.17 "Hg6 mi
6:53 am47 °FOvercast.14 mph77%30.17 "Hg10 mi
5:53 am48 °FOvercast.15 mph74%30.18 "Hg10 mi
4:53 am48 °FOvercast.13 mph74%30.17 "Hg10 mi
3:53 am48 °FOvercast.13 mph74%30.17 "Hg10 mi
Weather by CustomWeather, © 2020

See weather overview